User: anonymous   Login
Location: Unspecified
(0.0000°N, 0.0000°E)
Time: 16:22:31
(UTC+00:00)
Language:

Diademe D-1D - Orbit

View from above orbital plane
View from above orbital plane
View from above satellite
View from above satellite

Ground track
Ground track

The orbit data is extracted from the following two-line orbital elements,

1  2680U 67014A   24105.11483488  .00000532  00000-0  23893-3 0  9991
2  2680  39.4433  28.5395 0711587 197.9022 159.5398 13.39983425769835
Epoch (UTC): 14 April 2024 02:45:21
Eccentricity: 0.0711587
inclination: 39.4433°
perigee height: 576 km
apogee height: 1642 km
right ascension of ascending node: 28.5395°
argument of perigee: 197.9022°
revolutions per day: 13.39983425
mean anomaly at epoch: 159.5398°
orbit number at epoch: 76983

The dashed part of the orbit path shows where the satellite is in the earth's shadow,  

DLR